Weather History for KSLE - February, 2014

Change the Weather History Date:

Sunday, February 23, 2014

  Actual Average Record
Temperature  
Mean Temperature 39 °F 44 °F  
Max Temperature 50 °F 53 °F 66 °F (2005)
Min Temperature 28 °F 35 °F 22 °F (1920)
Degree Days  
Heating Degree Days 26 21  
Month to date heating degree days 546 510  
Since 1 July heating degree days 3204 3137  
Cooling Degree Days 0 0  
Month to date cooling degree days 0 0  
Year to date cooling degree days 0 0  
Moisture  
Dew Point 36 °F    
Average Humidity 81    
Maximum Humidity 100    
Minimum Humidity 61    
Precipitation  
Precipitation 0.03 in 0.16 in 0.96 in (1996)
Month to date precipitation 6.62 3.79  
Year to date precipitation 8.88 9.75  
Sea Level Pressure  
Sea Level Pressure 30.01 in    
Wind  
Wind Speed 6 mph (SSE)    
Max Wind Speed 16 mph    
Max Gust Speed 21 mph    
Visibility 9 miles    
Events Fog , Rain    
T = Trace of Precipitation, MM = Missing Value Source: NWS Daily Summary

Daily Weather History Graph

Daily Weather History Graph

Search for Another Location

Airport or City:

Trip Planner

Search our weather history database for the weather conditions in past years. The results will help you decide how hot, cold, wet, or windy it might be!

Date:

Astronomy

Feb. 23, 2014 Rise Set
Actual Time 6:59 AM PST 5:51 PM PST
Civil Twilight 6:30 AM PST 6:21 PM PST
Nautical Twilight 5:56 AM PST 6:55 PM PST
Astronomical Twilight 5:22 AM PST 7:29 PM PST
Moon 2:11 AM PST (2/23) 11:51 AM PST (2/23)
Length of Visible Light 11h 51m
Length of Day
10h 51m
Last Quarter, 38% of the Moon is Illuminated
Feb 23
Last Quarter
Mar 1
New
Mar 8
First Quarter
Mar 16
Full
Mar 23
Last Quarter

Hourly Weather History & Observations

Time (PST) Temp. Windchill Dew Point Humidity Pressure Visibility Wind Dir Wind Speed Gust Speed Precip Events Conditions
12:56 AM 33.1 °F - 30.0 °F 89% 30.06 in 10.0 mi Calm Calm - N/A   Clear
1:56 AM 33.1 °F - 30.0 °F 89% 30.06 in 10.0 mi Calm Calm - N/A   Clear
2:56 AM 32.0 °F - 28.9 °F 88% 30.05 in 10.0 mi Calm Calm - N/A   Clear
3:56 AM 30.9 °F - 28.0 °F 89% 30.04 in 10.0 mi Calm Calm - N/A   Clear
4:56 AM 30.9 °F - 28.0 °F 89% 30.03 in 10.0 mi Calm Calm - N/A   Clear
5:56 AM 28.9 °F 25.2 °F 28.0 °F 96% 30.02 in 10.0 mi South 3.5 mph - N/A   Clear
6:56 AM 30.0 °F - 28.0 °F 92% 30.02 in 10.0 mi Calm Calm - N/A   Clear
7:14 AM 30.9 °F 27.5 °F 28.0 °F 89% 30.01 in 10.0 mi SE 3.5 mph - N/A   Scattered Clouds
7:23 AM 30.9 °F - 28.9 °F 92% 30.01 in 9.0 mi Calm Calm - N/A   Mostly Cloudy
7:32 AM 30.9 °F - 28.9 °F 92% 30.01 in 1.2 mi Calm Calm - N/A   Mostly Cloudy
7:39 AM 30.0 °F - 30.0 °F 100% 30.01 in 0.2 mi Calm Calm - N/A Fog Light Freezing Fog
7:48 AM 30.9 °F 27.5 °F 30.0 °F 96% 30.01 in 1.0 mi SSE 3.5 mph - N/A   Mist
7:53 AM 32.0 °F 27.5 °F 30.2 °F 93% 30.01 in 2.0 mi SSE 4.6 mph - N/A   Mostly Cloudy
7:56 AM 32.0 °F 28.7 °F 30.9 °F 96% 30.02 in 2.5 mi South 3.5 mph - N/A   Mostly Cloudy
7:59 AM 33.1 °F - 32.0 °F 96% 30.01 in 3.0 mi Calm Calm - N/A   Scattered Clouds
8:13 AM 33.1 °F 30.0 °F 32.0 °F 96% 30.00 in 9.0 mi SSE 3.5 mph - N/A   Mostly Cloudy
8:56 AM 35.1 °F 32.2 °F 34.0 °F 96% 30.02 in 10.0 mi SE 3.5 mph - N/A   Partly Cloudy
9:56 AM 39.9 °F 36.7 °F 36.0 °F 86% 30.01 in 10.0 mi SE 4.6 mph - N/A   Clear
10:56 AM 46.9 °F - 37.9 °F 71% 30.00 in 10.0 mi SSE 6.9 mph - N/A   Clear
11:56 AM 48.9 °F - 39.0 °F 69% 29.98 in 10.0 mi SE 4.6 mph - N/A   Clear
12:56 PM 50.0 °F - 37.9 °F 63% 29.96 in 10.0 mi South 15.0 mph - N/A   Scattered Clouds
1:56 PM 48.9 °F - 39.0 °F 69% 29.96 in 10.0 mi South 6.9 mph - N/A   Overcast
2:56 PM 50.0 °F - 41.0 °F 71% 29.97 in 10.0 mi South 4.6 mph - N/A   Overcast
3:56 PM 50.0 °F - 44.1 °F 80% 29.98 in 10.0 mi SSE 9.2 mph - 0.02 in Rain Light Rain
4:56 PM 50.0 °F - 41.0 °F 71% 29.97 in 10.0 mi South 11.5 mph - 0.00 in   Overcast
5:56 PM 48.9 °F - 39.0 °F 69% 29.98 in 10.0 mi South 13.8 mph - N/A   Overcast
6:56 PM 48.9 °F - 39.9 °F 71% 29.99 in 10.0 mi South 10.4 mph - N/A   Overcast
7:56 PM 48.9 °F - 42.1 °F 77% 29.99 in 10.0 mi South 12.7 mph - N/A   Overcast
8:44 PM 48.9 °F - 42.1 °F 77% 29.99 in 10.0 mi South 15.0 mph 20.7 mph N/A   Overcast
8:56 PM 48.9 °F - 42.1 °F 77% 30.00 in 10.0 mi South 15.0 mph - N/A   Overcast
9:56 PM 48.0 °F - 43.0 °F 83% 30.02 in 10.0 mi South 10.4 mph - N/A   Overcast
10:26 PM 46.9 °F - 44.1 °F 90% 30.02 in 10.0 mi South 4.6 mph - N/A   Overcast
10:46 PM 46.9 °F - 45.0 °F 93% 30.02 in 10.0 mi SSE 6.9 mph - 0.00 in Rain Light Rain
10:56 PM 48.0 °F - 45.0 °F 89% 30.03 in 10.0 mi SSE 9.2 mph - 0.00 in   Overcast
11:56 PM 48.0 °F - 46.0 °F 93% 30.02 in 10.0 mi SSE 5.8 mph - 0.01 in   Overcast